Wind_Speed
66 66 67 68 68 69 69 69 70 69 66 67 70 71 72 71 68 66 61 56 51 44 39 37 36 37 44 53 59 68 78 87 97 108 117 126 127 125
65 65 66 67 67 67 67 68 69 69 67 66 67 68 68 67 65 63 58 53 48 42 37 35 34 36 44 53 60 66 74 83 93 104 114 123 127 125
63 64 65 65 65 66 66 67 67 67 67 65 65 65 65 63 61 59 55 50 45 40 36 33 33 35 42 53 60 66 72 82 91 100 111 120 127 125
62 62 63 64 64 65 65 65 65 66 66 65 63 62 61 60 58 55 51 48 44 39 35 32 32 35 41 52 60 67 74 82 89 98 107 118 126 126
60 61 61 62 63 63 64 64 64 64 64 64 61 60 59 58 55 51 48 45 42 38 35 32 31 35 41 50 60 68 74 81 89 97 106 117 124 126
59 59 60 61 61 62 62 62 62 62 62 62 60 59 57 55 53 49 45 43 40 37 34 31 30 33 40 48 58 67 74 81 88 96 105 116 123 126
57 58 59 60 60 60 60 60 60 60 60 60 59 57 56 54 50 47 43 40 38 36 33 30 28 30 37 48 56 66 74 81 87 95 104 114 122 126
55 56 57 58 58 59 58 58 58 58 58 58 57 56 54 51 48 44 41 39 35 34 32 28 27 27 33 44 55 64 74 81 86 93 101 112 120 125
54 55 55 56 56 57 56 56 55 56 56 56 55 53 51 48 46 42 40 38 35 32 30 26 25 25 30 41 52 61 71 79 85 92 99 109 119 124
53 54 54 54 55 55 54 53 53 53 53 53 53 51 48 45 43 40 38 36 33 30 28 25 23 23 26 36 50 59 69 78 84 90 98 107 116 123
52 53 53 53 53 53 53 52 51 51 50 50 50 48 46 43 41 39 36 34 30 28 26 23 21 20 24 32 45 57 67 75 81 88 96 105 114 121
51 51 52 52 51 52 51 51 50 49 49 48 46 45 43 41 39 37 34 31 28 25 23 22 20 18 20 29 41 54 65 74 81 87 94 102 112 120
50 49 50 50 50 50 49 49 48 47 47 45 43 42 41 39 37 35 32 29 26 24 21 20 19 17 18 25 38 50 61 71 79 86 93 101 110 118
48 48 48 48 48 48 47 47 46 45 45 43 41 40 39 36 35 33 30 27 24 22 20 18 17 16 17 22 33 46 57 68 77 85 92 100 108 115
46 46 47 46 46 46 45 45 44 43 42 40 39 38 37 35 33 30 27 25 22 20 19 17 16 16 17 22 30 42 53 64 73 83 91 98 106 114
45 45 45 45 44 44 43 43 42 41 40 38 36 36 35 33 31 28 25 23 21 19 17 16 15 15 17 22 29 38 50 60 70 79 88 96 104 112
43 43 43 43 42 42 41 41 40 39 37 35 34 34 33 32 30 27 24 21 19 17 16 14 14 15 17 21 28 35 46 57 66 76 85 93 102 110
41 41 41 41 40 40 39 39 38 37 35 33 32 32 32 30 28 26 23 21 19 17 15 14 13 14 16 21 27 34 43 54 63 72 81 90 100 108
39 39 39 38 38 38 37 37 36 35 33 31 31 31 31 29 26 24 22 20 18 15 14 13 13 13 16 21 26 33 41 51 60 70 78 87 96 106
36 37 36 36 36 35 35 35 34 33 31 30 30 29 29 27 25 23 21 18 16 14 13 13 13 14 16 21 26 32 39 48 58 67 75 83 92 102
34 35 34 34 34 33 33 33 32 31 30 28 28 28 27 26 23 22 19 17 15 13 13 13 13 14 16 20 25 31 38 46 55 64 72 80 89 98
32 32 32 32 32 31 31 31 31 29 28 27 27 27 26 24 22 20 18 16 14 12 12 13 13 14 15 19 24 31 37 44 53 62 70 78 85 93
30 30 30 30 29 29 30 29 29 28 27 26 25 25 24 23 21 19 17 15 13 13 13 13 13 14 16 18 23 30 36 43 51 60 68 75 82 90
Wind_Direction
306 306 306 306 307 308 309 310 311 312 313 313 313 314 314 314 314 314 313 312 307 297 287 276 260 244 228 217 212 210 210 209 208 207 205 205 202 201
305 306 306 307 308 309 309 311 312 313 314 315 315 315 315 315 315 314 314 312 309 299 288 276 259 242 225 213 208 208 208 207 207 205 204 204 202 200
305 305 305 306 308 309 310 311 312 313 315 317 316 316 316 316 316 315 314 312 310 302 289 277 259 241 224 212 206 204 205 204 204 204 203 203 202 199
304 305 306 307 308 309 311 312 313 314 316 317 318 317 317 317 317 315 314 312 310 305 291 278 259 242 225 212 206 203 202 203 203 203 202 202 201 199
303 305 306 307 309 310 311 312 313 314 316 318 318 318 318 318 317 316 314 312 310 306 295 280 262 244 228 215 207 202 201 202 202 202 201 201 200 198
303 304 306 308 309 310 311 312 313 315 316 318 318 319 319 318 317 316 314 312 310 307 300 286 268 248 230 217 208 203 201 201 201 201 201 200 199 198
303 304 306 308 309 310 312 313 314 316 317 318 319 319 320 319 318 316 315 313 311 308 303 291 273 253 234 219 210 205 202 201 201 201 201 200 199 197
302 304 307 309 309 311 312 313 315 316 318 319 320 320 320 319 318 317 315 314 311 307 304 294 276 257 238 221 211 205 202 202 201 200 200 199 198 197
303 305 307 308 309 311 312 313 315 316 318 319 320 321 320 319 318 317 315 314 312 308 303 295 279 260 241 223 212 206 202 201 201 200 199 199 198 197
303 305 306 308 310 311 313 314 315 316 317 319 320 320 320 319 318 317 314 313 311 307 302 295 282 263 244 225 212 206 202 200 200 200 199 199 198 197
302 304 306 308 309 311 313 314 315 316 318 319 319 320 320 319 318 316 313 312 310 306 301 294 283 267 245 226 213 206 202 200 200 200 199 199 198 197
302 303 305 307 309 311 313 315 316 317 319 319 319 320 320 320 318 317 313 311 309 305 298 292 283 269 247 226 213 206 202 200 200 199 199 199 199 197
301 303 305 307 309 311 314 315 316 318 319 320 319 320 320 319 319 317 314 311 308 305 297 289 280 266 248 227 213 206 202 200 200 200 199 198 198 197
299 302 305 307 309 311 314 316 316 318 320 320 320 320 320 319 319 317 313 310 308 304 296 286 276 262 244 227 213 206 202 200 200 199 199 198 198 197
298 301 304 306 309 311 314 316 317 319 320 320 320 321 320 319 318 316 313 309 305 302 294 284 271 256 240 224 212 205 202 200 199 199 199 199 198 197
296 300 303 306 309 311 313 316 317 319 320 320 321 321 321 320 318 316 312 308 303 298 293 282 266 251 236 222 212 206 202 199 199 199 198 198 198 198
295 298 302 305 308 310 313 315 317 319 320 320 321 322 321 320 319 316 312 306 300 293 288 279 264 249 234 221 212 206 202 199 199 198 198 198 198 197
295 298 302 305 307 310 313 315 317 318 320 320 320 322 322 321 318 315 310 305 297 289 281 272 258 245 231 220 211 206 202 200 198 198 198 198 197 197
295 298 302 304 306 309 313 316 317 318 319 319 320 321 322 321 319 315 312 306 297 287 276 266 253 242 230 218 210 206 203 200 198 197 197 197 198 198
294 298 301 304 306 310 313 316 317 318 318 318 319 321 322 321 319 316 313 307 297 285 272 263 251 240 230 218 210 205 203 200 197 196 196 197 198 198
295 298 301 303 306 310 314 316 317 318 317 317 319 321 321 320 318 317 312 306 298 286 271 259 248 239 230 219 210 205 202 199 197 196 195 196 197 198
295 298 301 304 308 311 314 316 318 317 317 316 318 321 321 319 317 315 310 304 295 284 272 256 243 236 228 218 209 204 201 199 197 195 195 195 196 197
295 299 302 305 308 311 314 316 318 317 316 316 318 320 319 317 315 313 308 301 292 279 270 255 242 235 226 217 209 203 200 198 196 195 194 194 195 196
Height
5556 5546 5536 5527 5516 5506 5496 5485 5475 5466 5457 5441 5425 5410 5394 5381 5368 5355 5344 5334 5323 5314 5306 5301 5298 5298 5301 5307 5316 5329 5343 5360 5380 5403 5430 5457 5486 5514
5539 5530 5520 5510 5500 5490 5479 5468 5457 5446 5437 5426 5410 5395 5380 5367 5353 5340 5329 5319 5310 5302 5295 5289 5286 5286 5288 5295 5304 5316 5330 5347 5366 5388 5414 5440 5468 5497
5523 5514 5504 5494 5485 5474 5463 5452 5440 5429 5419 5409 5394 5381 5367 5353 5341 5328 5316 5307 5299 5291 5284 5279 5275 5275 5278 5283 5293 5304 5318 5334 5353 5375 5398 5425 5453 5482
5508 5498 5489 5479 5469 5459 5448 5437 5425 5413 5402 5392 5381 5367 5354 5340 5328 5317 5305 5296 5287 5280 5274 5269 5266 5265 5267 5273 5282 5293 5307 5323 5341 5362 5385 5410 5438 5467
5492 5484 5474 5464 5455 5444 5433 5422 5411 5399 5387 5376 5366 5354 5341 5328 5317 5306 5296 5286 5278 5271 5264 5260 5257 5256 5258 5264 5273 5284 5297 5313 5330 5350 5373 5398 5426 5455
5478 5469 5460 5451 5441 5430 5420 5409 5397 5386 5374 5363 5352 5341 5329 5317 5305 5296 5287 5277 5269 5262 5256 5251 5249 5248 5250 5255 5264 5274 5288 5303 5321 5340 5363 5387 5415 5443
5464 5456 5447 5437 5427 5416 5406 5396 5384 5374 5362 5351 5340 5329 5318 5306 5295 5286 5277 5269 5262 5254 5248 5244 5241 5240 5241 5247 5255 5266 5279 5294 5311 5331 5354 5378 5405 5433
5450 5442 5433 5424 5414 5404 5393 5383 5372 5361 5350 5339 5328 5317 5307 5296 5286 5276 5268 5261 5255 5248 5241 5237 5233 5233 5234 5238 5247 5257 5270 5286 5303 5323 5345 5369 5395 5422
5437 5429 5420 5411 5401 5391 5382 5371 5361 5350 5339 5329 5318 5307 5297 5287 5278 5269 5260 5253 5247 5241 5235 5231 5228 5226 5227 5231 5239 5249 5262 5278 5295 5315 5336 5359 5385 5411
5424 5416 5407 5399 5389 5380 5371 5361 5350 5340 5330 5319 5309 5299 5288 5278 5269 5261 5254 5247 5241 5235 5229 5225 5222 5221 5221 5225 5232 5242 5255 5270 5287 5307 5328 5350 5374 5401
5411 5403 5395 5387 5378 5368 5359 5350 5341 5331 5320 5309 5299 5289 5279 5270 5261 5254 5247 5240 5235 5230 5225 5221 5218 5216 5217 5220 5226 5235 5247 5263 5280 5299 5319 5341 5364 5390
5399 5391 5383 5375 5366 5356 5348 5339 5330 5320 5311 5301 5291 5281 5272 5263 5255 5247 5240 5234 5229 5225 5221 5217 5214 5213 5213 5216 5221 5229 5241 5255 5272 5291 5310 5332 5355 5380
5386 5379 5372 5363 5355 5346 5337 5329 5320 5310 5301 5292 5283 5274 5265 5256 5249 5241 5235 5229 5224 5220 5217 5214 5212 5210 5210 5212 5217 5225 5236 5249 5265 5283 5302 5323 5346 5371
5374 5367 5360 5352 5344 5336 5327 5319 5310 5301 5292 5283 5275 5266 5258 5250 5242 5236 5230 5224 5220 5216 5213 5210 5209 5208 5208 5209 5214 5221 5232 5244 5259 5276 5295 5315 5338 5362
5361 5355 5349 5341 5333 5326 5318 5309 5301 5292 5284 5276 5267 5259 5251 5244 5237 5230 5225 5220 5216 5213 5210 5207 5206 5206 5206 5208 5211 5218 5228 5240 5253 5270 5288 5308 5331 5354
5349 5343 5337 5330 5323 5316 5308 5300 5292 5284 5276 5268 5260 5253 5245 5238 5231 5225 5220 5216 5212 5210 5207 5205 5204 5204 5204 5206 5210 5216 5224 5236 5249 5265 5282 5302 5324 5348
5337 5332 5326 5320 5313 5306 5299 5291 5284 5276 5269 5261 5254 5247 5239 5232 5226 5220 5216 5212 5209 5206 5204 5203 5202 5201 5203 5205 5209 5214 5222 5233 5245 5260 5277 5297 5318 5341
5326 5321 5316 5310 5304 5297 5290 5283 5276 5269 5261 5254 5248 5241 5234 5228 5221 5216 5211 5208 5205 5203 5201 5200 5200 5200 5201 5203 5207 5213 5220 5229 5242 5256 5272 5291 5313 5334
5315 5311 5306 5300 5294 5288 5282 5275 5268 5261 5254 5248 5242 5235 5229 5223 5217 5212 5207 5204 5201 5199 5198 5197 5197 5198 5199 5202 5206 5211 5218 5226 5238 5252 5268 5287 5307 5328
5305 5301 5296 5291 5285 5279 5273 5267 5261 5254 5248 5242 5236 5230 5224 5218 5213 5208 5204 5200 5198 5196 5195 5195 5195 5196 5197 5199 5203 5209 5215 5224 5235 5249 5264 5281 5300 5320
5295 5291 5287 5282 5277 5271 5266 5260 5253 5247 5241 5236 5230 5224 5219 5213 5209 5204 5200 5197 5194 5193 5192 5192 5192 5193 5194 5197 5201 5206 5213 5221 5232 5244 5259 5275 5293 5313
5286 5282 5278 5274 5269 5264 5258 5252 5247 5241 5235 5230 5225 5219 5214 5209 5204 5200 5196 5193 5191 5190 5189 5189 5189 5190 5192 5194 5198 5203 5210 5219 5229 5240 5255 5271 5288 5311
5277 5274 5270 5266 5261 5256 5251 5246 5240 5234 5229 5224 5219 5214 5209 5204 5200 5196 5193 5190 5188 5186 5186 5185 5186 5188 5189 5192 5196 5201 5207 5216 5226 5238 5253 5268 5285 5304